Time,TemperatureF,DewpointF,PressureIn,WindDirection,WindDirectionDegrees,WindSpeedMPH,WindSpeedGustMPH,Humidity,HourlyPrecipIn,Conditions,Clouds,dailyrainin,SoftwareType,DateUTC
2013-03-17 00:00:00,29.5,15.8,30.04,NE,36,0.0,0.0,56,0.00,,---,0.00,VWS V14.01,2013-03-17 04:00:00,
2013-03-17 00:01:00,29.5,15.8,30.04,NE,36,0.0,0.0,56,0.00,,---,0.00,VWS V14.01,2013-03-17 04:01:00,
2013-03-17 00:03:00,29.5,15.8,30.04,NE,36,0.0,0.0,56,0.00,,---,0.00,VWS V14.01,2013-03-17 04:03:00,
2013-03-17 00:04:00,29.5,15.8,30.04,NE,36,0.0,0.0,56,0.00,,---,0.00,VWS V14.01,2013-03-17 04:04:00,
2013-03-17 00:09:00,29.5,16.2,30.04,NE,36,0.0,0.0,57,0.00,,---,0.00,VWS V14.01,2013-03-17 04:09:00,
2013-03-17 00:14:00,29.7,16.8,30.04,NE,36,0.0,0.0,58,0.00,,---,0.00,VWS V14.01,2013-03-17 04:14:00,
2013-03-17 00:19:00,29.7,16.8,30.04,NE,36,0.0,0.0,58,0.00,,---,0.00,VWS V14.01,2013-03-17 04:19:00,
2013-03-17 00:24:00,29.8,17.4,30.04,NE,36,0.0,0.0,59,0.00,,---,0.00,VWS V14.01,2013-03-17 04:24:00,
2013-03-17 00:29:00,29.8,17.4,30.04,NE,36,0.0,0.0,59,0.00,,---,0.00,VWS V14.01,2013-03-17 04:29:00,
2013-03-17 00:34:00,29.8,17.4,30.04,NE,36,0.0,0.0,59,0.00,,---,0.00,VWS V14.01,2013-03-17 04:34:00,
2013-03-17 00:39:00,29.8,17.4,30.04,NE,36,0.0,0.0,59,0.00,,---,0.00,VWS V14.01,2013-03-17 04:39:00,
2013-03-17 00:44:00,29.8,17.4,30.04,NE,36,0.0,0.0,59,0.00,,---,0.00,VWS V14.01,2013-03-17 04:44:00,
2013-03-17 00:49:00,29.7,16.8,30.04,NE,36,0.0,0.0,58,0.00,,---,0.00,VWS V14.01,2013-03-17 04:49:00,
2013-03-17 00:54:00,29.7,16.8,30.04,NE,36,0.0,0.0,58,0.00,,---,0.00,VWS V14.01,2013-03-17 04:54:00,
2013-03-17 00:59:00,29.7,16.8,30.04,NE,36,0.0,0.0,58,0.00,,---,0.00,VWS V14.01,2013-03-17 04:59:00,
2013-03-17 01:04:00,29.5,16.7,30.04,NE,36,0.0,0.0,58,0.00,,---,0.00,VWS V14.01,2013-03-17 05:04:00,
2013-03-17 01:09:00,29.5,16.7,30.04,NE,36,0.0,0.0,58,0.00,,---,0.00,VWS V14.01,2013-03-17 05:09:00,
2013-03-17 01:14:00,29.5,16.2,30.04,NE,36,0.0,0.0,57,0.00,,---,0.00,VWS V14.01,2013-03-17 05:14:00,
2013-03-17 01:19:00,29.3,16.1,30.04,NE,36,0.0,0.0,57,0.00,,---,0.00,VWS V14.01,2013-03-17 05:19:00,
2013-03-17 01:24:00,29.1,15.9,30.04,NE,36,0.0,0.0,57,0.00,,---,0.00,VWS V14.01,2013-03-17 05:24:00,
2013-03-17 01:30:00,28.9,15.7,30.04,NE,36,0.0,0.0,57,0.00,,---,0.00,VWS V14.01,2013-03-17 05:30:00,
2013-03-17 01:35:00,28.9,15.7,30.04,NE,36,0.0,0.0,57,0.00,,---,0.00,VWS V14.01,2013-03-17 05:35:00,
2013-03-17 01:40:00,28.9,15.7,30.04,NE,36,0.0,0.0,57,0.00,,---,0.00,VWS V14.01,2013-03-17 05:40:00,
2013-03-17 01:45:00,28.9,16.2,30.04,NE,36,0.0,0.0,58,0.00,,---,0.00,VWS V14.01,2013-03-17 05:45:00,
2013-03-17 01:50:00,28.9,16.2,30.04,NE,36,0.0,0.0,58,0.00,,---,0.00,VWS V14.01,2013-03-17 05:50:00,
2013-03-17 01:55:00,28.9,16.2,30.04,NE,36,0.0,0.0,58,0.00,,---,0.00,VWS V14.01,2013-03-17 05:55:00,
2013-03-17 02:00:00,28.9,16.2,30.04,NE,36,0.0,0.0,58,0.00,,---,0.00,VWS V14.01,2013-03-17 06:00:00,
2013-03-17 02:05:00,28.9,16.2,30.04,NE,36,0.0,0.0,58,0.00,,---,0.00,VWS V14.01,2013-03-17 06:05:00,
2013-03-17 02:10:00,28.9,16.2,30.04,NE,36,0.0,0.0,58,0.00,,---,0.00,VWS V14.01,2013-03-17 06:10:00,
2013-03-17 02:15:00,28.9,16.2,30.07,NE,36,0.0,0.0,58,0.00,,---,0.00,VWS V14.01,2013-03-17 06:15:00,
2013-03-17 02:20:00,29.1,16.3,30.07,NE,36,0.0,0.0,58,0.00,,---,0.00,VWS V14.01,2013-03-17 06:20:00,
2013-03-17 02:25:00,29.1,16.8,30.07,NE,36,0.0,0.0,59,0.00,,---,0.00,VWS V14.01,2013-03-17 06:25:00,
2013-03-17 02:31:00,29.3,16.9,30.07,NE,36,0.0,0.0,59,0.00,,---,0.00,VWS V14.01,2013-03-17 06:31:00,
2013-03-17 02:36:00,29.3,16.5,30.07,NE,36,0.0,0.0,58,0.00,,---,0.00,VWS V14.01,2013-03-17 06:36:00,
2013-03-17 02:42:00,29.5,16.2,30.07,NE,36,0.0,0.0,57,0.00,,---,0.00,VWS V14.01,2013-03-17 06:42:00,
2013-03-17 02:47:00,29.5,16.2,30.07,NE,36,0.0,0.0,57,0.00,,---,0.00,VWS V14.01,2013-03-17 06:47:00,
2013-03-17 02:52:00,29.5,16.2,30.07,NE,36,0.0,0.0,57,0.00,,---,0.00,VWS V14.01,2013-03-17 06:52:00,
2013-03-17 02:57:00,29.5,16.2,30.07,NE,36,0.0,0.0,57,0.00,,---,0.00,VWS V14.01,2013-03-17 06:57:00,
2013-03-17 03:02:00,29.5,16.2,30.07,NE,36,0.0,0.0,57,0.00,,---,0.00,VWS V14.01,2013-03-17 07:02:00,
2013-03-17 03:07:00,29.5,16.2,30.07,NE,36,0.0,0.0,57,0.00,,---,0.00,VWS V14.01,2013-03-17 07:07:00,
2013-03-17 03:12:00,29.5,16.7,30.07,NE,36,0.0,0.0,58,0.00,,---,0.00,VWS V14.01,2013-03-17 07:12:00,
2013-03-17 03:17:00,29.7,16.8,30.07,NE,36,0.0,0.0,58,0.00,,---,0.00,VWS V14.01,2013-03-17 07:17:00,
2013-03-17 03:23:00,29.5,16.2,30.07,NE,36,0.0,0.0,57,0.00,,---,0.00,VWS V14.01,2013-03-17 07:23:00,
2013-03-17 03:28:00,29.1,15.0,30.07,NE,35,0.0,0.0,55,0.00,,---,0.00,VWS V14.01,2013-03-17 07:28:00,
2013-03-17 03:33:00,28.8,14.2,30.10,NE,35,0.0,0.0,54,0.00,,---,0.00,VWS V14.01,2013-03-17 07:33:00,
2013-03-17 03:38:00,28.2,12.8,30.10,NE,35,0.0,0.0,52,0.00,,---,0.00,VWS V14.01,2013-03-17 07:38:00,
2013-03-17 03:43:00,27.9,12.0,30.10,NE,35,0.0,0.0,51,0.00,,---,0.00,VWS V14.01,2013-03-17 07:43:00,
2013-03-17 03:48:00,27.3,11.0,30.10,NE,35,0.0,0.0,50,0.00,,---,0.00,VWS V14.01,2013-03-17 07:48:00,
2013-03-17 03:53:00,27.0,10.2,30.10,NE,34,0.0,0.0,49,0.00,,---,0.00,VWS V14.01,2013-03-17 07:53:00,
2013-03-17 03:58:00,26.8,10.5,30.10,NE,34,0.0,0.0,50,0.00,,---,0.00,VWS V14.01,2013-03-17 07:58:00,
2013-03-17 04:03:00,26.6,10.8,30.10,NE,34,0.0,0.0,51,0.00,,---,0.00,VWS V14.01,2013-03-17 08:03:00,
2013-03-17 04:08:00,26.4,10.6,30.10,NE,34,0.0,0.0,51,0.00,,---,0.00,VWS V14.01,2013-03-17 08:08:00,
2013-03-17 04:13:00,26.2,10.0,30.10,NE,34,0.0,0.0,50,0.00,,---,0.00,VWS V14.01,2013-03-17 08:13:00,
2013-03-17 04:18:00,26.1,10.3,30.10,NE,34,0.0,0.0,51,0.00,,---,0.00,VWS V14.01,2013-03-17 08:18:00,
2013-03-17 04:23:00,26.1,10.3,30.10,NNE,33,0.0,0.0,51,0.00,,---,0.00,VWS V14.01,2013-03-17 08:23:00,
2013-03-17 04:28:00,25.9,10.1,30.10,NNE,33,0.0,0.0,51,0.00,,---,0.00,VWS V14.01,2013-03-17 08:28:00,
2013-03-17 04:34:00,25.7,10.0,30.10,NNE,33,0.0,0.0,51,0.00,,---,0.00,VWS V14.01,2013-03-17 08:34:00,
2013-03-17 04:39:00,25.5,9.8,30.10,NNE,33,0.0,0.0,51,0.00,,---,0.00,VWS V14.01,2013-03-17 08:39:00,
2013-03-17 04:44:00,25.3,9.6,30.10,NNE,33,0.0,0.0,51,0.00,,---,0.00,VWS V14.01,2013-03-17 08:44:00,
2013-03-17 04:49:00,25.3,9.6,30.10,NNE,33,0.0,0.0,51,0.00,,---,0.00,VWS V14.01,2013-03-17 08:49:00,
2013-03-17 04:54:00,25.2,9.5,30.10,NNE,33,0.0,0.0,51,0.00,,---,0.00,VWS V14.01,2013-03-17 08:54:00,
2013-03-17 04:59:00,25.0,9.8,30.10,NNE,33,0.0,0.0,52,0.00,,---,0.00,VWS V14.01,2013-03-17 08:59:00,
2013-03-17 05:04:00,24.8,10.1,30.10,NNE,33,0.0,0.0,53,0.00,,---,0.00,VWS V14.01,2013-03-17 09:04:00,
2013-03-17 05:09:00,24.6,9.9,30.10,NNE,33,0.0,0.0,53,0.00,,---,0.00,VWS V14.01,2013-03-17 09:09:00,
2013-03-17 05:14:00,24.4,9.7,30.10,NNE,33,0.0,0.0,53,0.00,,---,0.00,VWS V14.01,2013-03-17 09:14:00,
2013-03-17 05:19:00,24.4,10.2,30.10,NNE,33,0.0,0.0,54,0.00,,---,0.00,VWS V14.01,2013-03-17 09:19:00,
2013-03-17 05:25:00,24.3,10.0,30.10,NNE,33,0.0,0.0,54,0.00,,---,0.00,VWS V14.01,2013-03-17 09:25:00,
2013-03-17 05:30:00,24.1,9.9,30.10,NNE,33,0.0,0.0,54,0.00,,---,0.00,VWS V14.01,2013-03-17 09:30:00,
2013-03-17 05:35:00,24.1,9.9,30.10,NNE,33,0.0,0.0,54,0.00,,---,0.00,VWS V14.01,2013-03-17 09:35:00,
2013-03-17 05:40:00,24.1,10.3,30.10,NNE,33,0.0,0.0,55,0.00,,---,0.00,VWS V14.01,2013-03-17 09:40:00,
2013-03-17 05:45:00,23.9,9.7,30.10,NNE,33,0.0,0.0,54,0.00,,---,0.00,VWS V14.01,2013-03-17 09:45:00,
2013-03-17 05:50:00,23.7,10.0,30.10,NNE,33,0.0,0.0,55,0.00,,---,0.00,VWS V14.01,2013-03-17 09:50:00,
2013-03-17 05:55:00,23.7,10.0,30.10,NNE,33,0.0,0.0,55,0.00,,---,0.00,VWS V14.01,2013-03-17 09:55:00,
2013-03-17 06:00:00,23.5,9.8,30.10,NNE,33,0.0,0.0,55,0.00,,---,0.00,VWS V14.01,2013-03-17 10:00:00,
2013-03-17 06:05:00,23.4,9.6,30.13,NNE,33,0.0,0.0,55,0.00,,---,0.00,VWS V14.01,2013-03-17 10:05:00,
2013-03-17 06:10:00,23.0,9.7,30.13,NNE,33,0.0,0.0,56,0.00,,---,0.00,VWS V14.01,2013-03-17 10:10:00,
2013-03-17 06:15:00,23.0,9.7,30.13,NNE,33,0.0,0.0,56,0.00,,---,0.00,VWS V14.01,2013-03-17 10:15:00,
2013-03-17 06:21:00,22.8,9.6,30.13,NNE,33,0.0,0.0,56,0.00,,---,0.00,VWS V14.01,2013-03-17 10:21:00,
2013-03-17 06:26:00,22.8,9.6,30.13,NNE,33,0.0,0.0,56,0.00,,---,0.00,VWS V14.01,2013-03-17 10:26:00,
2013-03-17 06:32:00,22.8,9.6,30.13,NNE,33,0.0,0.0,56,0.00,,---,0.00,VWS V14.01,2013-03-17 10:32:00,
2013-03-17 06:37:00,22.5,9.2,30.13,NNE,33,0.0,0.0,56,0.00,,---,0.00,VWS V14.01,2013-03-17 10:37:00,
2013-03-17 06:42:00,22.1,8.9,30.13,NNE,33,0.0,0.0,56,0.00,,---,0.00,VWS V14.01,2013-03-17 10:42:00,
2013-03-17 06:47:00,21.9,8.7,30.13,NNE,33,0.0,0.0,56,0.00,,---,0.00,VWS V14.01,2013-03-17 10:47:00,
2013-03-17 06:52:00,21.7,8.5,30.13,NNE,33,0.0,0.0,56,0.00,,---,0.00,VWS V14.01,2013-03-17 10:52:00,
2013-03-17 06:57:00,21.4,8.2,30.13,NNE,33,0.0,0.0,56,0.00,,---,0.00,VWS V14.01,2013-03-17 10:57:00,
2013-03-17 07:02:00,21.2,8.4,30.13,NNE,33,0.0,0.0,57,0.00,,---,0.00,VWS V14.01,2013-03-17 11:02:00,
2013-03-17 07:08:00,21.2,8.4,30.13,NNE,33,0.0,0.0,57,0.00,,---,0.00,VWS V14.01,2013-03-17 11:08:00,
2013-03-17 07:13:00,21.0,8.3,30.13,NNE,33,0.0,0.0,57,0.00,,---,0.00,VWS V14.01,2013-03-17 11:13:00,
2013-03-17 07:18:00,20.8,8.1,30.13,NNE,33,0.0,0.0,57,0.00,,---,0.00,VWS V14.01,2013-03-17 11:18:00,
2013-03-17 07:23:00,20.7,7.9,30.13,NNE,33,0.0,0.0,57,0.00,,---,0.00,VWS V14.01,2013-03-17 11:23:00,
2013-03-17 07:28:00,20.5,8.2,30.13,NNE,33,0.0,0.0,58,0.00,,---,0.00,VWS V14.01,2013-03-17 11:28:00,
2013-03-17 07:33:00,20.5,8.2,30.16,NNE,33,0.0,0.0,58,0.00,,---,0.00,VWS V14.01,2013-03-17 11:33:00,
2013-03-17 07:38:00,20.3,8.0,30.16,NNE,33,0.0,0.0,58,0.00,,---,0.00,VWS V14.01,2013-03-17 11:38:00,
2013-03-17 07:43:00,20.3,8.0,30.16,NNE,33,0.0,0.0,58,0.00,,---,0.00,VWS V14.01,2013-03-17 11:43:00,
2013-03-17 07:48:00,20.3,8.4,30.16,NNE,33,0.0,0.0,59,0.00,,---,0.00,VWS V14.01,2013-03-17 11:48:00,
2013-03-17 07:53:00,20.3,8.4,30.16,NNE,33,0.0,0.0,59,0.00,,---,0.00,VWS V14.01,2013-03-17 11:53:00,
2013-03-17 07:58:00,20.3,9.2,30.16,NNE,33,0.0,0.0,62,0.00,,---,0.00,VWS V14.01,2013-03-17 11:58:00,
2013-03-17 08:03:00,20.3,9.2,30.19,NNE,33,0.0,0.0,62,0.00,,---,0.00,VWS V14.01,2013-03-17 12:03:00,
2013-03-17 08:08:00,20.3,9.2,30.19,NNE,33,0.0,0.0,62,0.00,,---,0.00,VWS V14.01,2013-03-17 12:08:00,
2013-03-17 08:13:00,20.5,9.8,30.19,NNE,33,0.0,0.0,63,0.00,,---,0.00,VWS V14.01,2013-03-17 12:13:00,
2013-03-17 08:19:00,20.7,9.9,30.19,NNE,33,0.0,0.0,63,0.00,,---,0.00,VWS V14.01,2013-03-17 12:19:00,
2013-03-17 08:24:00,21.0,10.3,30.19,NNE,33,0.0,0.0,63,0.00,,---,0.00,VWS V14.01,2013-03-17 12:24:00,
2013-03-17 08:29:00,21.4,11.0,30.19,NNE,33,0.0,0.0,64,0.00,,---,0.00,VWS V14.01,2013-03-17 12:29:00,
2013-03-17 08:34:00,21.9,11.5,30.19,NNE,33,0.0,0.0,64,0.00,,---,0.00,VWS V14.01,2013-03-17 12:34:00,
2013-03-17 08:39:00,22.6,12.2,30.19,NNE,33,0.0,0.0,64,0.00,,---,0.00,VWS V14.01,2013-03-17 12:39:00,
2013-03-17 08:44:00,23.4,12.9,30.19,NNE,33,0.0,0.0,64,0.00,,---,0.00,VWS V14.01,2013-03-17 12:44:00,
2013-03-17 08:49:00,23.7,12.1,30.19,NNE,33,0.0,0.0,60,0.00,,---,0.00,VWS V14.01,2013-03-17 12:49:00,
2013-03-17 08:54:00,24.3,11.8,30.19,NNE,33,0.0,0.0,58,0.00,,---,0.00,VWS V14.01,2013-03-17 12:54:00,
2013-03-17 08:59:00,24.6,11.7,30.19,NNE,33,0.0,0.0,57,0.00,,---,0.00,VWS V14.01,2013-03-17 12:59:00,
2013-03-17 09:04:00,25.0,11.6,30.19,NNE,33,0.0,0.0,56,0.00,,---,0.00,VWS V14.01,2013-03-17 13:04:00,
2013-03-17 09:09:00,25.3,11.0,30.19,NNE,33,0.0,0.0,54,0.00,,---,0.00,VWS V14.01,2013-03-17 13:09:00,
2013-03-17 09:14:00,25.5,10.3,30.19,NNE,33,0.0,0.0,52,0.00,,---,0.00,VWS V14.01,2013-03-17 13:14:00,
2013-03-17 09:20:00,25.7,10.0,30.22,NNE,33,0.0,0.0,51,0.00,,---,0.00,VWS V14.01,2013-03-17 13:20:00,
2013-03-17 09:25:00,26.1,9.8,30.22,NNE,33,0.0,0.0,50,0.00,,---,0.00,VWS V14.01,2013-03-17 13:25:00,
2013-03-17 09:30:00,26.2,9.5,30.22,NNE,33,0.0,0.0,49,0.00,,---,0.00,VWS V14.01,2013-03-17 13:30:00,
2013-03-17 09:35:00,26.4,9.2,30.22,NNE,33,0.0,0.0,48,0.00,,---,0.00,VWS V14.01,2013-03-17 13:35:00,
2013-03-17 09:40:00,26.6,8.8,30.22,NNE,33,0.0,0.0,46,0.00,,---,0.00,VWS V14.01,2013-03-17 13:40:00,
2013-03-17 09:45:00,26.8,9.0,30.22,NNE,33,0.0,0.0,46,0.00,,---,0.00,VWS V14.01,2013-03-17 13:45:00,
2013-03-17 09:50:00,27.3,9.5,30.22,NNE,33,0.0,0.0,46,0.00,,---,0.00,VWS V14.01,2013-03-17 13:50:00,
2013-03-17 09:55:00,27.7,8.8,30.22,NNE,33,0.0,0.0,44,0.00,,---,0.00,VWS V14.01,2013-03-17 13:55:00,
2013-03-17 10:00:00,27.9,8.9,30.22,NNE,33,0.0,0.0,44,0.00,,---,0.00,VWS V14.01,2013-03-17 14:00:00,
2013-03-17 10:05:00,28.4,7.7,30.22,NNE,33,0.0,0.0,41,0.00,,---,0.00,VWS V14.01,2013-03-17 14:05:00,
2013-03-17 10:10:00,28.9,8.2,30.22,NE,34,0.0,0.0,41,0.00,,---,0.00,VWS V14.01,2013-03-17 14:10:00,
2013-03-17 10:15:00,29.3,8.0,30.22,NE,34,0.0,0.0,40,0.00,,---,0.00,VWS V14.01,2013-03-17 14:15:00,
2013-03-17 10:20:00,29.7,7.1,30.22,NE,34,0.0,0.0,38,0.00,,---,0.00,VWS V14.01,2013-03-17 14:20:00,
2013-03-17 10:25:00,29.8,6.6,30.22,NE,34,0.0,0.0,37,0.00,,---,0.00,VWS V14.01,2013-03-17 14:25:00,
2013-03-17 10:30:00,30.0,6.8,30.22,NNE,23,0.0,0.0,37,0.00,,---,0.00,VWS V14.01,2013-03-17 14:30:00,
2013-03-17 10:35:00,30.9,6.9,30.22,ENE,71,0.0,0.0,36,0.00,,---,0.00,VWS V14.01,2013-03-17 14:35:00,
2013-03-17 10:41:00,31.8,7.0,30.22,ENE,71,0.0,0.0,35,0.00,,---,0.00,VWS V14.01,2013-03-17 14:41:00,
2013-03-17 10:46:00,32.2,7.3,30.22,ENE,72,0.0,0.0,35,0.00,,---,0.00,VWS V14.01,2013-03-17 14:46:00,
2013-03-17 10:52:00,33.3,7.6,30.22,NE,53,0.0,0.0,33,0.00,,---,0.00,VWS V14.01,2013-03-17 14:52:00,
2013-03-17 10:57:00,33.1,7.4,30.22,NE,56,0.0,0.0,33,0.00,,---,0.00,VWS V14.01,2013-03-17 14:57:00,
2013-03-17 11:02:00,33.4,7.8,30.22,East,85,0.0,0.0,33,0.00,,---,0.00,VWS V14.01,2013-03-17 15:02:00,
2013-03-17 11:07:00,33.6,7.9,30.22,East,85,0.0,0.0,33,0.00,,---,0.00,VWS V14.01,2013-03-17 15:07:00,
2013-03-17 11:12:00,33.3,7.6,30.22,East,86,0.0,0.0,33,0.00,,---,0.00,VWS V14.01,2013-03-17 15:12:00,
2013-03-17 11:17:00,33.1,6.7,30.24,East,86,0.0,0.0,32,0.00,,---,0.00,VWS V14.01,2013-03-17 15:17:00,
2013-03-17 11:23:00,33.4,7.0,30.24,East,85,0.0,0.0,32,0.00,,---,0.00,VWS V14.01,2013-03-17 15:23:00,
2013-03-17 11:28:00,34.0,7.5,30.24,East,85,0.0,0.0,32,0.00,,---,0.00,VWS V14.01,2013-03-17 15:28:00,
2013-03-17 11:33:00,34.3,7.8,30.24,East,85,0.0,0.0,32,0.00,,---,0.00,VWS V14.01,2013-03-17 15:33:00,
2013-03-17 11:38:00,34.3,7.8,30.24,East,84,0.0,0.0,32,0.00,,---,0.00,VWS V14.01,2013-03-17 15:38:00,
2013-03-17 11:43:00,34.2,7.7,30.24,East,85,0.0,0.0,32,0.00,,---,0.00,VWS V14.01,2013-03-17 15:43:00,
2013-03-17 11:48:00,33.6,7.2,30.24,East,99,0.0,0.0,32,0.00,,---,0.00,VWS V14.01,2013-03-17 15:48:00,
2013-03-17 11:53:00,33.8,7.3,30.24,SSE,156,0.0,0.0,32,0.00,,---,0.00,VWS V14.01,2013-03-17 15:53:00,
2013-03-17 11:58:00,34.3,7.8,30.24,East,81,0.0,0.0,32,0.00,,---,0.00,VWS V14.01,2013-03-17 15:58:00,
2013-03-17 12:03:00,34.3,7.8,30.24,ESE,122,0.0,0.0,32,0.00,,---,0.00,VWS V14.01,2013-03-17 16:03:00,
2013-03-17 12:08:00,34.5,8.0,30.24,ESE,122,0.0,0.0,32,0.00,,---,0.00,VWS V14.01,2013-03-17 16:08:00,
2013-03-17 12:13:00,34.3,7.8,30.24,East,99,0.0,0.0,32,0.00,,---,0.00,VWS V14.01,2013-03-17 16:13:00,
2013-03-17 12:18:00,34.2,7.7,30.24,NNE,30,0.0,0.0,32,0.00,,---,0.00,VWS V14.01,2013-03-17 16:18:00,
2013-03-17 12:23:00,33.8,7.3,30.24,ESE,112,0.0,0.0,32,0.00,,---,0.00,VWS V14.01,2013-03-17 16:23:00,
2013-03-17 12:28:00,34.0,7.5,30.24,NE,51,0.0,0.0,32,0.00,,---,0.00,VWS V14.01,2013-03-17 16:28:00,
2013-03-17 12:33:00,33.8,7.3,30.24,East,88,0.0,0.0,32,0.00,,---,0.00,VWS V14.01,2013-03-17 16:33:00,
2013-03-17 12:38:00,33.6,5.7,30.24,SE,125,0.0,0.0,30,0.00,,---,0.00,VWS V14.01,2013-03-17 16:38:00,
2013-03-17 12:44:00,33.6,7.2,30.24,SE,130,0.0,0.0,32,0.00,,---,0.00,VWS V14.01,2013-03-17 16:44:00,
2013-03-17 12:49:00,33.8,5.0,30.24,East,101,0.0,0.0,29,0.00,,---,0.00,VWS V14.01,2013-03-17 16:49:00,
2013-03-17 12:54:00,33.8,7.3,30.24,SSE,157,0.0,0.0,32,0.00,,---,0.00,VWS V14.01,2013-03-17 16:54:00,
2013-03-17 12:59:00,34.0,7.5,30.24,SE,125,0.0,0.0,32,0.00,,---,0.00,VWS V14.01,2013-03-17 16:59:00,
2013-03-17 13:04:00,34.5,8.0,30.24,East,93,0.0,0.0,32,0.00,,---,0.00,VWS V14.01,2013-03-17 17:04:00,
2013-03-17 13:09:00,34.3,7.8,30.24,East,83,0.0,0.0,32,0.00,,---,0.00,VWS V14.01,2013-03-17 17:09:00,
2013-03-17 13:14:00,34.3,7.8,30.24,ENE,78,0.0,0.0,32,0.00,,---,0.00,VWS V14.01,2013-03-17 17:14:00,
2013-03-17 13:19:00,34.3,7.8,30.24,SE,126,0.0,0.0,32,0.00,,---,0.00,VWS V14.01,2013-03-17 17:19:00,
2013-03-17 13:24:00,34.2,5.4,30.24,ESE,118,0.0,0.0,29,0.00,,---,0.00,VWS V14.01,2013-03-17 17:24:00,
2013-03-17 13:29:00,34.0,7.5,30.24,SE,131,0.0,0.0,32,0.00,,---,0.00,VWS V14.01,2013-03-17 17:29:00,
2013-03-17 13:34:00,34.0,5.2,30.24,East,100,0.0,0.0,29,0.00,,---,0.00,VWS V14.01,2013-03-17 17:34:00,
2013-03-17 13:39:00,34.0,5.2,30.24,SE,126,0.0,0.0,29,0.00,,---,0.00,VWS V14.01,2013-03-17 17:39:00,
2013-03-17 13:44:00,33.8,5.0,30.24,East,92,0.0,0.0,29,0.00,,---,0.00,VWS V14.01,2013-03-17 17:44:00,
2013-03-17 13:49:00,34.0,7.5,30.24,East,95,0.0,0.0,32,0.00,,---,0.00,VWS V14.01,2013-03-17 17:49:00,
2013-03-17 13:54:00,34.0,7.5,30.24,NNE,21,0.0,0.0,32,0.00,,---,0.00,VWS V14.01,2013-03-17 17:54:00,
2013-03-17 13:59:00,34.2,7.7,30.24,East,101,0.0,0.0,32,0.00,,---,0.00,VWS V14.01,2013-03-17 17:59:00,
2013-03-17 14:05:00,34.5,8.0,30.24,ESE,122,0.0,0.0,32,0.00,,---,0.00,VWS V14.01,2013-03-17 18:05:00,
2013-03-17 14:10:00,34.3,7.8,30.24,ESE,117,0.0,0.0,32,0.00,,---,0.00,VWS V14.01,2013-03-17 18:10:00,
2013-03-17 14:17:00,34.3,7.8,30.24,ESE,120,0.0,0.0,32,0.00,,---,0.00,VWS V14.01,2013-03-17 18:17:00,
2013-03-17 14:24:00,34.3,7.8,30.24,East,99,0.0,0.0,32,0.00,,---,0.00,VWS V14.01,2013-03-17 18:24:00,
2013-03-17 14:39:00,35.1,8.5,30.22,East,87,0.0,0.0,32,0.00,,---,0.00,VWS V14.01,2013-03-17 18:39:00,
2013-03-17 14:45:00,34.9,8.3,30.22,East,91,0.0,0.0,32,0.00,,---,0.00,VWS V14.01,2013-03-17 18:45:00,
2013-03-17 14:51:00,34.3,7.8,30.22,SSE,156,0.0,0.0,32,0.00,,---,0.00,VWS V14.01,2013-03-17 18:51:00,
2013-03-17 14:56:00,33.6,7.2,30.22,SSE,151,0.0,0.0,32,0.00,,---,0.00,VWS V14.01,2013-03-17 18:56:00,
2013-03-17 15:02:00,34.2,7.7,30.22,SE,135,0.0,0.0,32,0.00,,---,0.00,VWS V14.01,2013-03-17 19:02:00,
2013-03-17 15:08:00,34.0,7.5,30.22,ESE,115,0.0,0.0,32,0.00,,---,0.00,VWS V14.01,2013-03-17 19:08:00,
2013-03-17 15:13:00,34.3,7.8,30.22,SE,132,0.0,0.0,32,0.00,,---,0.00,VWS V14.01,2013-03-17 19:13:00,
2013-03-17 15:18:00,34.3,7.8,30.22,East,79,0.0,0.0,32,0.00,,---,0.00,VWS V14.01,2013-03-17 19:18:00,
2013-03-17 15:23:00,34.9,8.3,30.22,East,86,0.0,0.0,32,0.00,,---,0.00,VWS V14.01,2013-03-17 19:23:00,
2013-03-17 15:28:00,34.5,8.0,30.22,SE,138,0.0,0.0,32,0.00,,---,0.00,VWS V14.01,2013-03-17 19:28:00,
2013-03-17 15:33:00,34.5,8.0,30.22,South,190,0.0,0.0,32,0.00,,---,0.00,VWS V14.01,2013-03-17 19:33:00,
2013-03-17 15:38:00,34.5,8.0,30.22,SSW,192,0.0,0.0,32,0.00,,---,0.00,VWS V14.01,2013-03-17 19:38:00,
2013-03-17 15:43:00,34.2,7.7,30.22,SE,127,0.0,0.0,32,0.00,,---,0.00,VWS V14.01,2013-03-17 19:43:00,
2013-03-17 15:48:00,33.3,7.6,30.22,SE,126,0.0,0.0,33,0.00,,---,0.00,VWS V14.01,2013-03-17 19:48:00,
2013-03-17 15:54:00,32.7,7.1,30.22,South,178,0.0,0.0,33,0.00,,---,0.00,VWS V14.01,2013-03-17 19:54:00,
2013-03-17 15:59:00,33.4,8.5,30.22,SSE,150,0.0,0.0,35,0.00,,---,0.00,VWS V14.01,2013-03-17 19:59:00,
2013-03-17 16:04:00,33.6,8.6,30.22,East,96,0.0,0.0,35,0.00,,---,0.00,VWS V14.01,2013-03-17 20:04:00,
2013-03-17 16:09:00,34.0,8.9,30.22,South,172,0.0,0.0,35,0.00,,---,0.00,VWS V14.01,2013-03-17 20:09:00,
2013-03-17 16:14:00,34.3,8.6,30.22,ESE,102,0.0,0.0,33,0.00,,---,0.00,VWS V14.01,2013-03-17 20:14:00,
2013-03-17 16:19:00,33.3,7.6,30.22,SSE,167,0.0,0.0,33,0.00,,---,0.00,VWS V14.01,2013-03-17 20:19:00,
2013-03-17 16:24:00,33.1,8.1,30.22,ESE,120,0.0,0.0,35,0.00,,---,0.00,VWS V14.01,2013-03-17 20:24:00,
2013-03-17 16:29:00,34.0,9.6,30.22,SE,131,0.0,0.0,36,0.00,,---,0.00,VWS V14.01,2013-03-17 20:29:00,
2013-03-17 16:34:00,33.8,8.1,30.22,ESE,109,0.0,0.0,33,0.00,,---,0.00,VWS V14.01,2013-03-17 20:34:00,
2013-03-17 16:39:00,33.3,8.3,30.22,SSW,210,0.0,0.0,35,0.00,,---,0.00,VWS V14.01,2013-03-17 20:39:00,
2013-03-17 16:44:00,33.6,8.6,30.22,ESE,118,0.0,0.0,35,0.00,,---,0.00,VWS V14.01,2013-03-17 20:44:00,
2013-03-17 16:50:00,32.7,7.8,30.22,SE,128,0.0,0.0,35,0.00,,---,0.00,VWS V14.01,2013-03-17 20:50:00,
2013-03-17 16:55:00,32.9,8.7,30.22,SE,142,0.0,0.0,36,0.00,,---,0.00,VWS V14.01,2013-03-17 20:55:00,
2013-03-17 17:00:00,32.5,8.3,30.22,SSE,147,0.0,0.0,36,0.00,,---,0.00,VWS V14.01,2013-03-17 21:00:00,
2013-03-17 17:05:00,32.2,8.0,30.22,ESE,107,0.0,0.0,36,0.00,,---,0.00,VWS V14.01,2013-03-17 21:05:00,
2013-03-17 17:10:00,31.8,7.7,30.22,SE,140,0.0,0.0,36,0.00,,---,0.00,VWS V14.01,2013-03-17 21:10:00,
2013-03-17 17:15:00,31.6,8.2,30.22,ESE,105,0.0,0.0,37,0.00,,---,0.00,VWS V14.01,2013-03-17 21:15:00,
2013-03-17 17:20:00,31.5,8.0,30.22,ESE,116,0.0,0.0,37,0.00,,---,0.00,VWS V14.01,2013-03-17 21:20:00,
2013-03-17 17:26:00,31.1,7.1,30.22,SE,132,0.0,0.0,36,0.00,,---,0.00,VWS V14.01,2013-03-17 21:26:00,
2013-03-17 17:32:00,30.9,6.2,30.22,ESE,111,0.0,0.0,35,0.00,,---,0.00,VWS V14.01,2013-03-17 21:32:00,
2013-03-17 17:37:00,31.1,7.7,30.22,SSE,155,0.0,0.0,37,0.00,,---,0.00,VWS V14.01,2013-03-17 21:37:00,
2013-03-17 17:42:00,31.1,7.7,30.22,SSE,168,0.0,0.0,37,0.00,,---,0.00,VWS V14.01,2013-03-17 21:42:00,
2013-03-17 17:47:00,30.7,7.4,30.22,South,191,0.0,0.0,37,0.00,,---,0.00,VWS V14.01,2013-03-17 21:47:00,
2013-03-17 17:52:00,30.9,7.6,30.22,ESE,123,0.0,0.0,37,0.00,,---,0.00,VWS V14.01,2013-03-17 21:52:00,
2013-03-17 17:57:00,31.8,9.6,30.22,ESE,117,0.0,0.0,39,0.00,,---,0.00,VWS V14.01,2013-03-17 21:57:00,
2013-03-17 18:02:00,31.6,9.5,30.22,ENE,71,0.0,0.0,39,0.00,,---,0.00,VWS V14.01,2013-03-17 22:02:00,
2013-03-17 18:07:00,31.1,8.4,30.22,SE,135,0.0,0.0,38,0.00,,---,0.00,VWS V14.01,2013-03-17 22:07:00,
2013-03-17 18:12:00,30.7,8.0,30.22,SE,142,0.0,0.0,38,0.00,,---,0.00,VWS V14.01,2013-03-17 22:12:00,
2013-03-17 18:18:00,30.6,8.5,30.22,SE,131,0.0,0.0,39,0.00,,---,0.00,VWS V14.01,2013-03-17 22:18:00,
2013-03-17 18:23:00,30.4,8.3,30.22,South,184,0.0,0.0,39,0.00,,---,0.00,VWS V14.01,2013-03-17 22:23:00,
2013-03-17 18:28:00,30.2,8.2,30.22,ESE,102,0.0,0.0,39,0.00,,---,0.00,VWS V14.01,2013-03-17 22:28:00,
2013-03-17 18:33:00,30.2,8.8,30.22,South,190,0.0,0.0,40,0.00,,---,0.00,VWS V14.01,2013-03-17 22:33:00,
2013-03-17 18:38:00,30.0,8.6,30.22,ESE,114,0.0,0.0,40,0.00,,---,0.00,VWS V14.01,2013-03-17 22:38:00,
2013-03-17 18:43:00,29.7,8.3,30.22,South,169,0.0,0.0,40,0.00,,---,0.00,VWS V14.01,2013-03-17 22:43:00,
2013-03-17 18:48:00,29.5,9.3,30.22,ESE,123,0.0,0.0,42,0.00,,---,0.00,VWS V14.01,2013-03-17 22:48:00,
2013-03-17 18:53:00,29.3,9.1,30.22,SE,132,0.0,0.0,42,0.00,,---,0.00,VWS V14.01,2013-03-17 22:53:00,
2013-03-17 18:58:00,29.1,7.8,30.22,ESE,111,0.0,0.0,40,0.00,,---,0.00,VWS V14.01,2013-03-17 22:58:00,
2013-03-17 19:03:00,29.1,9.0,30.22,East,99,0.0,0.0,42,0.00,,---,0.00,VWS V14.01,2013-03-17 23:03:00,
2013-03-17 19:08:00,28.9,8.8,30.22,East,93,0.0,0.0,42,0.00,,---,0.00,VWS V14.01,2013-03-17 23:08:00,
2013-03-17 19:14:00,28.9,8.8,30.22,SE,129,0.0,0.0,42,0.00,,---,0.00,VWS V14.01,2013-03-17 23:14:00,
2013-03-17 19:19:00,28.8,9.2,30.22,ESE,119,0.0,0.0,43,0.00,,---,0.00,VWS V14.01,2013-03-17 23:19:00,
2013-03-17 19:24:00,28.8,8.6,30.22,SSE,147,0.0,0.0,42,0.00,,---,0.00,VWS V14.01,2013-03-17 23:24:00,
2013-03-17 19:29:00,28.6,9.0,30.22,ESE,122,0.0,0.0,43,0.00,,---,0.00,VWS V14.01,2013-03-17 23:29:00,
2013-03-17 19:34:00,28.6,9.6,30.22,ESE,106,0.0,0.0,44,0.00,,---,0.00,VWS V14.01,2013-03-17 23:34:00,
2013-03-17 19:39:00,28.6,9.6,30.22,East,94,0.0,0.0,44,0.00,,---,0.00,VWS V14.01,2013-03-17 23:39:00,
2013-03-17 19:45:00,28.4,9.4,30.22,ESE,115,0.0,0.0,44,0.00,,---,0.00,VWS V14.01,2013-03-17 23:45:00,
2013-03-17 19:50:00,28.2,9.3,30.22,ESE,118,0.0,0.0,44,0.00,,---,0.00,VWS V14.01,2013-03-17 23:50:00,
2013-03-17 19:55:00,28.2,9.3,30.22,East,84,0.0,0.0,44,0.00,,---,0.00,VWS V14.01,2013-03-17 23:55:00,
2013-03-17 20:00:00,28.2,9.3,30.22,SE,127,0.0,0.0,44,0.00,,---,0.00,VWS V14.01,2013-03-18 00:00:00,
2013-03-17 20:05:00,28.2,9.3,30.22,East,94,0.0,0.0,44,0.00,,---,0.00,VWS V14.01,2013-03-18 00:05:00,
2013-03-17 20:10:00,28.0,9.1,30.22,SE,131,0.0,0.0,44,0.00,,---,0.00,VWS V14.01,2013-03-18 00:10:00,
2013-03-17 20:15:00,28.0,9.1,30.22,ESE,104,0.0,0.0,44,0.00,,---,0.00,VWS V14.01,2013-03-18 00:15:00,
2013-03-17 20:20:00,28.0,9.6,30.22,ESE,109,0.0,0.0,45,0.00,,---,0.00,VWS V14.01,2013-03-18 00:20:00,
2013-03-17 20:25:00,27.9,9.5,30.22,SE,126,0.0,0.0,45,0.00,,---,0.00,VWS V14.01,2013-03-18 00:25:00,
2013-03-17 20:30:00,27.9,9.5,30.22,ESE,122,0.0,0.0,45,0.00,,---,0.00,VWS V14.01,2013-03-18 00:30:00,
2013-03-17 20:35:00,27.9,9.5,30.22,ESE,112,0.0,0.0,45,0.00,,---,0.00,VWS V14.01,2013-03-18 00:35:00,
2013-03-17 20:41:00,27.9,9.5,30.22,ESE,119,0.0,0.0,45,0.00,,---,0.00,VWS V14.01,2013-03-18 00:41:00,
2013-03-17 20:46:00,27.7,9.3,30.22,SE,135,0.0,0.0,45,0.00,,---,0.00,VWS V14.01,2013-03-18 00:46:00,
2013-03-17 20:51:00,27.7,9.3,30.22,East,98,0.0,0.0,45,0.00,,---,0.00,VWS V14.01,2013-03-18 00:51:00,
2013-03-17 20:57:00,27.7,9.3,30.22,SE,128,0.0,0.0,45,0.00,,---,0.00,VWS V14.01,2013-03-18 00:57:00,
2013-03-17 21:02:00,27.5,9.1,30.22,ESE,116,0.0,0.0,45,0.00,,---,0.00,VWS V14.01,2013-03-18 01:02:00,
2013-03-17 21:07:00,27.5,9.1,30.22,ESE,122,0.0,0.0,45,0.00,,---,0.00,VWS V14.01,2013-03-18 01:07:00,
2013-03-17 21:12:00,27.5,9.1,30.22,ESE,108,0.0,0.0,45,0.00,,---,0.00,VWS V14.01,2013-03-18 01:12:00,
2013-03-17 21:17:00,27.5,9.1,30.22,ESE,119,0.0,0.0,45,0.00,,---,0.00,VWS V14.01,2013-03-18 01:17:00,
2013-03-17 21:22:00,27.3,9.0,30.22,SE,140,0.0,0.0,45,0.00,,---,0.00,VWS V14.01,2013-03-18 01:22:00,
2013-03-17 21:27:00,27.3,9.0,30.22,ESE,102,0.0,0.0,45,0.00,,---,0.00,VWS V14.01,2013-03-18 01:27:00,
2013-03-17 21:32:00,27.3,9.5,30.22,ESE,111,0.0,0.0,46,0.00,,---,0.00,VWS V14.01,2013-03-18 01:32:00,
2013-03-17 21:38:00,27.1,9.3,30.22,ESE,110,0.0,0.0,46,0.00,,---,0.00,VWS V14.01,2013-03-18 01:38:00,
2013-03-17 21:43:00,27.0,9.2,30.22,SE,126,0.0,0.0,46,0.00,,---,0.00,VWS V14.01,2013-03-18 01:43:00,
2013-03-17 21:48:00,26.8,9.0,30.22,ESE,110,0.0,0.0,46,0.00,,---,0.00,VWS V14.01,2013-03-18 01:48:00,
2013-03-17 21:53:00,26.6,9.3,30.22,East,83,0.0,0.0,48,0.00,,---,0.00,VWS V14.01,2013-03-18 01:53:00,
2013-03-17 21:58:00,26.4,9.7,30.22,ESE,118,0.0,0.0,49,0.00,,---,0.00,VWS V14.01,2013-03-18 01:58:00,
2013-03-17 22:03:00,26.2,9.5,30.22,ESE,103,0.0,0.0,49,0.00,,---,0.00,VWS V14.01,2013-03-18 02:03:00,
2013-03-17 22:08:00,26.2,9.5,30.22,South,170,0.0,0.0,49,0.00,,---,0.00,VWS V14.01,2013-03-18 02:08:00,
2013-03-17 22:13:00,26.1,9.4,30.22,ESE,105,0.0,0.0,49,0.00,,---,0.00,VWS V14.01,2013-03-18 02:13:00,
2013-03-17 22:18:00,26.1,9.4,30.22,SE,130,0.0,0.0,49,0.00,,---,0.00,VWS V14.01,2013-03-18 02:18:00,
2013-03-17 22:23:00,25.9,9.7,30.22,ESE,118,0.0,0.0,50,0.00,,---,0.00,VWS V14.01,2013-03-18 02:23:00,
2013-03-17 22:28:00,25.9,9.7,30.22,East,96,0.0,0.0,50,0.00,,---,0.00,VWS V14.01,2013-03-18 02:28:00,
2013-03-17 22:33:00,25.7,9.5,30.22,ENE,65,0.0,0.0,50,0.00,,---,0.00,VWS V14.01,2013-03-18 02:33:00,
2013-03-17 22:39:00,25.5,9.8,30.22,East,84,0.0,0.0,51,0.00,,---,0.00,VWS V14.01,2013-03-18 02:39:00,
2013-03-17 22:44:00,25.3,9.6,30.22,East,99,0.0,0.0,51,0.00,,---,0.00,VWS V14.01,2013-03-18 02:44:00,
2013-03-17 22:49:00,25.3,9.6,30.19,ESE,123,0.0,0.0,51,0.00,,---,0.00,VWS V14.01,2013-03-18 02:49:00,
2013-03-17 22:54:00,25.2,9.9,30.19,SE,130,0.0,0.0,52,0.00,,---,0.00,VWS V14.01,2013-03-18 02:54:00,
2013-03-17 22:59:00,25.2,9.9,30.19,East,99,0.0,0.0,52,0.00,,---,0.00,VWS V14.01,2013-03-18 02:59:00,
2013-03-17 23:04:00,25.0,10.2,30.19,East,98,0.0,0.0,53,0.00,,---,0.00,VWS V14.01,2013-03-18 03:04:00,
2013-03-17 23:09:00,25.0,10.2,30.19,ESE,123,0.0,0.0,53,0.00,,---,0.00,VWS V14.01,2013-03-18 03:09:00,
2013-03-17 23:14:00,24.8,10.5,30.19,ESE,118,0.0,0.0,54,0.00,,---,0.00,VWS V14.01,2013-03-18 03:14:00,
2013-03-17 23:19:00,24.8,10.5,30.19,ESE,121,0.0,0.0,54,0.00,,---,0.00,VWS V14.01,2013-03-18 03:19:00,
2013-03-17 23:24:00,24.6,10.4,30.19,SE,141,0.0,0.0,54,0.00,,---,0.00,VWS V14.01,2013-03-18 03:24:00,
2013-03-17 23:29:00,24.6,10.8,30.19,SE,125,0.0,0.0,55,0.00,,---,0.00,VWS V14.01,2013-03-18 03:29:00,
2013-03-17 23:34:00,24.4,10.6,30.19,ESE,104,0.0,0.0,55,0.00,,---,0.00,VWS V14.01,2013-03-18 03:34:00,
2013-03-17 23:39:00,24.4,10.6,30.19,SE,129,0.0,0.0,55,0.00,,---,0.00,VWS V14.01,2013-03-18 03:39:00,
2013-03-17 23:44:00,24.4,10.6,30.19,SE,126,0.0,0.0,55,0.00,,---,0.00,VWS V14.01,2013-03-18 03:44:00,
2013-03-17 23:50:00,24.4,10.6,30.16,SE,125,0.0,0.0,55,0.00,,---,0.00,VWS V14.01,2013-03-18 03:50:00,
2013-03-17 23:55:00,24.4,11.1,30.16,ESE,120,0.0,0.0,56,0.00,,---,0.00,VWS V14.01,2013-03-18 03:55:00,